Tracking 17267 objects as of 31-August-2015
HD Live streaming from Space Station

SJ-7

Track SJ-7 now!
10-day predictions
SJ-7 is classified as:


NORAD ID: 28737
Int'l Code: 2005-024A
Perigee: 567.8 km
Apogee: 612.7 km
Inclination: 97.7 °
Period: 96.3 minutes
Semi major axis: 6961 km
RCS: 3.0015 m2 (large)
Launch date: July 5, 2005
Source: People's Republic of China (PRC)
Your satellite tracking list
Your tracking list is empty





NASA's NSSDC Master Catalog

Two Line Element Set (TLE):
1 28737U 05024A   15243.22638672  .00000341  00000-0  36412-4 0  9997
2 28737 097.6658 254.1867 0032198 346.7855 013.2546 14.94763460556948

Source of the keplerian elements: AFSPC

N2YO: 323